owner,sensor,date,latitude,longitude,vertical_datum,wind_speed,wind_to_direction,wind_speed_of_gust,qcFlag 
COMPS,ioos:station:USF.COMPS:ARP:1,2017-04-01T00:00:00Z,28.4330,-82.6670,10.0,4.42,263.48,6.07,'1111122,1111122,1111122' 
COMPS,ioos:station:USF.COMPS:ARP:1,2017-04-01T00:06:00Z,28.4330,-82.6670,10.0,4.92,264.41,8.33,'1111122,1111122,1111122' 
COMPS,ioos:station:USF.COMPS:ARP:1,2017-04-01T00:12:00Z,28.4330,-82.6670,10.0,5.21,262.35,7.35,'1111122,1111122,1111122' 
COMPS,ioos:station:USF.COMPS:ARP:1,2017-04-01T00:18:00Z,28.4330,-82.6670,10.0,4.53,263.96,6.56,'1111122,1111122,1111122' 
COMPS,ioos:station:USF.COMPS:ARP:1,2017-04-01T00:24:00Z,28.4330,-82.6670,10.0,4.79,265.59,6.76,'1111122,1111122,1111122' 
COMPS,ioos:station:USF.COMPS:ARP:1,2017-04-01T00:30:00Z,28.4330,-82.6670,10.0,4.85,264.29,8.03,'1111122,1111122,1111122' 
COMPS,ioos:station:USF.COMPS:ARP:1,2017-04-01T00:36:00Z,28.4330,-82.6670,10.0,4.31,264.91,5.78,'1111122,1111122,1111122' 
COMPS,ioos:station:USF.COMPS:ARP:1,2017-04-01T00:42:00Z,28.4330,-82.6670,10.0,4.56,265.41,6.27,'1111122,1111122,1111122' 
COMPS,ioos:station:USF.COMPS:ARP:1,2017-04-01T00:48:00Z,28.4330,-82.6670,10.0,4.58,263.21,5.97,'1111122,1111122,1111122' 
COMPS,ioos:station:USF.COMPS:ARP:1,2017-04-01T00:54:00Z,28.4330,-82.6670,10.0,5.03,263.59,7.25,'1111122,1111122,1111122' 
COMPS,ioos:station:USF.COMPS:ARP:1,2017-04-01T01:00:00Z,28.4330,-82.6670,10.0,5.07,264.55,6.85,'1111122,1111122,1111122' 
COMPS,ioos:station:USF.COMPS:ARP:1,2017-04-01T01:06:00Z,28.4330,-82.6670,10.0,5.2,266.92,7.05,'1111122,1111122,1111122' 
COMPS,ioos:station:USF.COMPS:ARP:1,2017-04-01T01:12:00Z,28.4330,-82.6670,10.0,4.91,266.93,6.46,'1111122,1111122,1111122' 
COMPS,ioos:station:USF.COMPS:ARP:1,2017-04-01T01:18:00Z,28.4330,-82.6670,10.0,5.07,267.62,7.05,'1111122,1111122,1111122' 
COMPS,ioos:station:USF.COMPS:ARP:1,2017-04-01T01:24:00Z,28.4330,-82.6670,10.0,5.48,265.46,6.85,'1111122,1111122,1111122' 
COMPS,ioos:station:USF.COMPS:ARP:1,2017-04-01T01:30:00Z,28.4330,-82.6670,10.0,4.81,270.05,6.76,'1111122,1111122,1111122' 
COMPS,ioos:station:USF.COMPS:ARP:1,2017-04-01T01:36:00Z,28.4330,-82.6670,10.0,5.02,270.81,6.76,'1111122,1111122,1111122' 
COMPS,ioos:station:USF.COMPS:ARP:1,2017-04-01T01:42:00Z,28.4330,-82.6670,10.0,5.34,265.54,7.74,'1111122,1111122,1111122' 
COMPS,ioos:station:USF.COMPS:ARP:1,2017-04-01T01:48:00Z,28.4330,-82.6670,10.0,5.14,265.91,7.05,'1111122,1111122,1111122' 
COMPS,ioos:station:USF.COMPS:ARP:1,2017-04-01T01:54:00Z,28.4330,-82.6670,10.0,4.6,270.85,6.46,'1111122,1111122,1111122' 
COMPS,ioos:station:USF.COMPS:ARP:1,2017-04-01T02:00:00Z,28.4330,-82.6670,10.0,4.3,273.31,5.78,'1111122,1111122,1111122' 
COMPS,ioos:station:USF.COMPS:ARP:1,2017-04-01T02:06:00Z,28.4330,-82.6670,10.0,4.79,268.96,6.17,'1111122,1111122,1111122' 
COMPS,ioos:station:USF.COMPS:ARP:1,2017-04-01T02:12:00Z,28.4330,-82.6670,10.0,5.24,268.89,7.05,'1111122,1111122,1111122' 
COMPS,ioos:station:USF.COMPS:ARP:1,2017-04-01T02:18:00Z,28.4330,-82.6670,10.0,5.18,268.99,7.54,'1111122,1111122,1111122' 
COMPS,ioos:station:USF.COMPS:ARP:1,2017-04-01T02:24:00Z,28.4330,-82.6670,10.0,5.61,266.14,7.83,'1111122,1111122,1111122' 
COMPS,ioos:station:USF.COMPS:ARP:1,2017-04-01T02:30:00Z,28.4330,-82.6670,10.0,5.41,270.84,7.64,'1111122,1111122,1111122' 
COMPS,ioos:station:USF.COMPS:ARP:1,2017-04-01T02:36:00Z,28.4330,-82.6670,10.0,4.77,272.53,7.15,'1111122,1111122,1111122' 
COMPS,ioos:station:USF.COMPS:ARP:1,2017-04-01T02:42:00Z,28.4330,-82.6670,10.0,4.88,266.91,7.05,'1111122,1111122,1111122' 
COMPS,ioos:station:USF.COMPS:ARP:1,2017-04-01T02:48:00Z,28.4330,-82.6670,10.0,4.64,272.25,6.27,'1111122,1111122,1111122' 
COMPS,ioos:station:USF.COMPS:ARP:1,2017-04-01T02:54:00Z,28.4330,-82.6670,10.0,4.98,264.36,6.46,'1111122,1111122,1111122' 
COMPS,ioos:station:USF.COMPS:ARP:1,2017-04-01T03:00:00Z,28.4330,-82.6670,10.0,4.69,265.34,6.17,'1111122,1111122,1111122' 
COMPS,ioos:station:USF.COMPS:ARP:1,2017-04-01T03:06:00Z,28.4330,-82.6670,10.0,4.69,269.19,6.27,'1111122,1111122,1111122' 
COMPS,ioos:station:USF.COMPS:ARP:1,2017-04-01T03:12:00Z,28.4330,-82.6670,10.0,4.61,277.33,6.95,'1111122,1111122,1111122' 
COMPS,ioos:station:USF.COMPS:ARP:1,2017-04-01T03:18:00Z,28.4330,-82.6670,10.0,4.9,275.22,7.44,'1111122,1111122,1111122' 
COMPS,ioos:station:USF.COMPS:ARP:1,2017-04-01T03:24:00Z,28.4330,-82.6670,10.0,4.67,271.43,6.37,'1111122,1111122,1111122' 
COMPS,ioos:station:USF.COMPS:ARP:1,2017-04-01T03:30:00Z,28.4330,-82.6670,10.0,4.63,278.35,7.05,'1111122,1111122,1111122' 
COMPS,ioos:station:USF.COMPS:ARP:1,2017-04-01T03:36:00Z,28.4330,-82.6670,10.0,4.93,274.62,8.62,'1111122,1111122,1111122' 
COMPS,ioos:station:USF.COMPS:ARP:1,2017-04-01T03:42:00Z,28.4330,-82.6670,10.0,4.92,276.38,6.76,'1111122,1111122,1111122' 
COMPS,ioos:station:USF.COMPS:ARP:1,2017-04-01T03:48:00Z,28.4330,-82.6670,10.0,5.4,275.72,7.44,'1111122,1111122,1111122' 
COMPS,ioos:station:USF.COMPS:ARP:1,2017-04-01T03:54:00Z,28.4330,-82.6670,10.0,4.98,270.22,6.85,'1111122,1111122,1111122' 
COMPS,ioos:station:USF.COMPS:ARP:1,2017-04-01T04:00:00Z,28.4330,-82.6670,10.0,5.76,272.7,7.44,'1111122,1111122,1111122' 
COMPS,ioos:station:USF.COMPS:ARP:1,2017-04-01T04:06:00Z,28.4330,-82.6670,10.0,4.77,274.28,6.76,'1111122,1111122,1111122' 
COMPS,ioos:station:USF.COMPS:ARP:1,2017-04-01T04:12:00Z,28.4330,-82.6670,10.0,4.92,277.76,6.66,'1111122,1111122,1111122' 
COMPS,ioos:station:USF.COMPS:ARP:1,2017-04-01T04:18:00Z,28.4330,-82.6670,10.0,4.61,276.53,6.95,'1111122,1111122,1111122' 
COMPS,ioos:station:USF.COMPS:ARP:1,2017-04-01T04:24:00Z,28.4330,-82.6670,10.0,4.79,275.81,6.95,'1111122,1111122,1111122' 
COMPS,ioos:station:USF.COMPS:ARP:1,2017-04-01T04:30:00Z,28.4330,-82.6670,10.0,4.41,274.33,5.97,'1111122,1111122,1111122' 
COMPS,ioos:station:USF.COMPS:ARP:1,2017-04-01T04:36:00Z,28.4330,-82.6670,10.0,5.11,276.97,7.64,'1111122,1111122,1111122' 
COMPS,ioos:station:USF.COMPS:ARP:1,2017-04-01T04:42:00Z,28.4330,-82.6670,10.0,3.83,274.24,6.17,'1111122,1111122,1111122' 
COMPS,ioos:station:USF.COMPS:ARP:1,2017-04-01T04:48:00Z,28.4330,-82.6670,10.0,4.79,280.29,7.25,'1111122,1111122,1111122' 
COMPS,ioos:station:USF.COMPS:ARP:1,2017-04-01T04:54:00Z,28.4330,-82.6670,10.0,5.88,280.01,7.44,'1111122,1111122,1111122' 
COMPS,ioos:station:USF.COMPS:ARP:1,2017-04-01T05:00:00Z,28.4330,-82.6670,10.0,5.53,278.04,8.13,'1111122,1111122,1111122' 
COMPS,ioos:station:USF.COMPS:ARP:1,2017-04-01T05:06:00Z,28.4330,-82.6670,10.0,5.37,278.0,8.42,'1111122,1111122,1111122' 
COMPS,ioos:station:USF.COMPS:ARP:1,2017-04-01T05:12:00Z,28.4330,-82.6670,10.0,4.99,281.69,7.44,'1111122,1111122,1111122' 
COMPS,ioos:station:USF.COMPS:ARP:1,2017-04-01T05:18:00Z,28.4330,-82.6670,10.0,5.21,275.55,7.35,'1111122,1111122,1111122' 
COMPS,ioos:station:USF.COMPS:ARP:1,2017-04-01T05:24:00Z,28.4330,-82.6670,10.0,4.74,275.24,5.87,'1111122,1111122,1111122' 
COMPS,ioos:station:USF.COMPS:ARP:1,2017-04-01T05:30:00Z,28.4330,-82.6670,10.0,4.27,283.55,6.07,'1111122,1111122,1111122' 
COMPS,ioos:station:USF.COMPS:ARP:1,2017-04-01T05:36:00Z,28.4330,-82.6670,10.0,4.65,284.14,6.76,'1111122,1111122,1111122' 
COMPS,ioos:station:USF.COMPS:ARP:1,2017-04-01T05:42:00Z,28.4330,-82.6670,10.0,4.67,291.51,6.76,'1111122,1111122,1111122' 
COMPS,ioos:station:USF.COMPS:ARP:1,2017-04-01T05:48:00Z,28.4330,-82.6670,10.0,4.73,292.38,5.97,'1111122,1111122,1111122' 
COMPS,ioos:station:USF.COMPS:ARP:1,2017-04-01T05:54:00Z,28.4330,-82.6670,10.0,4.99,295.84,6.46,'1111122,1111122,1111122' 
COMPS,ioos:station:USF.COMPS:ARP:1,2017-04-01T06:00:00Z,28.4330,-82.6670,10.0,5.01,292.3,6.07,'1111122,1111122,1111122' 
COMPS,ioos:station:USF.COMPS:ARP:1,2017-04-01T06:06:00Z,28.4330,-82.6670,10.0,5.16,300.85,6.17,'1111122,1111122,1111122' 
COMPS,ioos:station:USF.COMPS:ARP:1,2017-04-01T06:12:00Z,28.4330,-82.6670,10.0,5.0,303.3,6.27,'1111122,1111122,1111122' 
COMPS,ioos:station:USF.COMPS:ARP:1,2017-04-01T06:18:00Z,28.4330,-82.6670,10.0,4.84,307.06,6.37,'1111122,1111122,1111122' 
COMPS,ioos:station:USF.COMPS:ARP:1,2017-04-01T06:24:00Z,28.4330,-82.6670,10.0,4.43,307.14,5.78,'1111122,1111122,1111122' 
COMPS,ioos:station:USF.COMPS:ARP:1,2017-04-01T06:30:00Z,28.4330,-82.6670,10.0,4.7,306.35,6.07,'1111122,1111122,1111122' 
COMPS,ioos:station:USF.COMPS:ARP:1,2017-04-01T06:36:00Z,28.4330,-82.6670,10.0,4.85,303.23,5.97,'1111122,1111122,1111122' 
COMPS,ioos:station:USF.COMPS:ARP:1,2017-04-01T06:42:00Z,28.4330,-82.6670,10.0,4.47,309.91,5.78,'1111122,1111122,1111122' 
COMPS,ioos:station:USF.COMPS:ARP:1,2017-04-01T06:48:00Z,28.4330,-82.6670,10.0,3.78,311.42,5.19,'1111122,1111122,1111122' 
COMPS,ioos:station:USF.COMPS:ARP:1,2017-04-01T06:54:00Z,28.4330,-82.6670,10.0,3.95,307.14,5.78,'1111122,1111122,1111122' 
COMPS,ioos:station:USF.COMPS:ARP:1,2017-04-01T07:00:00Z,28.4330,-82.6670,10.0,3.58,308.15,4.7,'1111122,1111122,1111122' 
COMPS,ioos:station:USF.COMPS:ARP:1,2017-04-01T07:06:00Z,28.4330,-82.6670,10.0,2.42,316.96,4.01,'1111122,1111122,1111122' 
COMPS,ioos:station:USF.COMPS:ARP:1,2017-04-01T07:12:00Z,28.4330,-82.6670,10.0,1.99,318.51,3.33,'1111122,1111122,1111122' 
COMPS,ioos:station:USF.COMPS:ARP:1,2017-04-01T07:18:00Z,28.4330,-82.6670,10.0,2.31,316.13,3.62,'1111122,1111122,1111122' 
COMPS,ioos:station:USF.COMPS:ARP:1,2017-04-01T07:24:00Z,28.4330,-82.6670,10.0,1.86,315.05,4.01,'1111122,1111122,1111122' 
COMPS,ioos:station:USF.COMPS:ARP:1,2017-04-01T07:30:00Z,28.4330,-82.6670,10.0,2.49,315.25,4.11,'1111122,1111122,1111122' 
COMPS,ioos:station:USF.COMPS:ARP:1,2017-04-01T07:36:00Z,28.4330,-82.6670,10.0,2.34,314.43,4.41,'1111122,1111122,1111122' 
COMPS,ioos:station:USF.COMPS:ARP:1,2017-04-01T07:42:00Z,28.4330,-82.6670,10.0,1.9,315.5,3.91,'1111122,1111122,1111122' 
COMPS,ioos:station:USF.COMPS:ARP:1,2017-04-01T07:48:00Z,28.4330,-82.6670,10.0,2.69,308.16,4.01,'1111122,1111122,1111122' 
COMPS,ioos:station:USF.COMPS:ARP:1,2017-04-01T07:54:00Z,28.4330,-82.6670,10.0,3.3,309.99,4.5,'1111122,1111122,1111122' 
COMPS,ioos:station:USF.COMPS:ARP:1,2017-04-01T08:00:00Z,28.4330,-82.6670,10.0,3.02,310.13,4.8,'1111122,1111122,1111122' 
COMPS,ioos:station:USF.COMPS:ARP:1,2017-04-01T08:06:00Z,28.4330,-82.6670,10.0,2.74,313.66,4.6,'1111122,1111122,1111122' 
COMPS,ioos:station:USF.COMPS:ARP:1,2017-04-01T08:12:00Z,28.4330,-82.6670,10.0,2.31,315.41,4.21,'1111122,1111122,1111122' 
COMPS,ioos:station:USF.COMPS:ARP:1,2017-04-01T08:18:00Z,28.4330,-82.6670,10.0,2.04,321.55,3.62,'1111122,1111122,1111122' 
COMPS,ioos:station:USF.COMPS:ARP:1,2017-04-01T08:24:00Z,28.4330,-82.6670,10.0,2.05,314.72,3.62,'1111122,1111122,1111122' 
COMPS,ioos:station:USF.COMPS:ARP:1,2017-04-01T08:30:00Z,28.4330,-82.6670,10.0,1.9,318.87,3.52,'1111122,1111122,1111122' 
COMPS,ioos:station:USF.COMPS:ARP:1,2017-04-01T08:36:00Z,28.4330,-82.6670,10.0,1.39,330.43,2.74,'1111122,1111122,1111122' 
COMPS,ioos:station:USF.COMPS:ARP:1,2017-04-01T08:42:00Z,28.4330,-82.6670,10.0,1.39,327.35,3.42,'1111122,1111122,1111122' 
COMPS,ioos:station:USF.COMPS:ARP:1,2017-04-01T08:48:00Z,28.4330,-82.6670,10.0,1.52,328.48,3.23,'1111122,1111122,1111122' 
COMPS,ioos:station:USF.COMPS:ARP:1,2017-04-01T08:54:00Z,28.4330,-82.6670,10.0,1.39,320.67,3.62,'1111122,1111122,1111122' 
COMPS,ioos:station:USF.COMPS:ARP:1,2017-04-01T09:00:00Z,28.4330,-82.6670,10.0,1.84,325.25,3.23,'1111122,1111122,1111122' 
COMPS,ioos:station:USF.COMPS:ARP:1,2017-04-01T09:06:00Z,28.4330,-82.6670,10.0,1.49,330.8,3.03,'1111122,1111122,1111122' 
COMPS,ioos:station:USF.COMPS:ARP:1,2017-04-01T09:12:00Z,28.4330,-82.6670,10.0,1.55,332.05,4.01,'1111122,1111122,1111122' 
COMPS,ioos:station:USF.COMPS:ARP:1,2017-04-01T09:18:00Z,28.4330,-82.6670,10.0,1.73,334.33,3.62,'1111122,1111122,1111122' 
COMPS,ioos:station:USF.COMPS:ARP:1,2017-04-01T09:24:00Z,28.4330,-82.6670,10.0,1.39,344.76,3.33,'1111122,1111122,1111122' 
COMPS,ioos:station:USF.COMPS:ARP:1,2017-04-01T09:30:00Z,28.4330,-82.6670,10.0,1.47,342.93,3.91,'1111122,1111122,1111122' 
COMPS,ioos:station:USF.COMPS:ARP:1,2017-04-01T09:36:00Z,28.4330,-82.6670,10.0,1.22,333.75,3.13,'1111122,1111122,1111122' 
COMPS,ioos:station:USF.COMPS:ARP:1,2017-04-01T09:42:00Z,28.4330,-82.6670,10.0,0.96,1.29,2.84,'1111122,1111122,1111122' 
COMPS,ioos:station:USF.COMPS:ARP:1,2017-04-01T09:48:00Z,28.4330,-82.6670,10.0,1.11,354.12,2.25,'1111122,1111122,1111122' 
COMPS,ioos:station:USF.COMPS:ARP:1,2017-04-01T09:54:00Z,28.4330,-82.6670,10.0,1.22,337.43,3.13,'1111122,1111122,1111122' 
COMPS,ioos:station:USF.COMPS:ARP:1,2017-04-01T10:00:00Z,28.4330,-82.6670,10.0,1.3,330.25,3.13,'1111122,1111122,1111122' 
COMPS,ioos:station:USF.COMPS:ARP:1,2017-04-01T10:06:00Z,28.4330,-82.6670,10.0,1.38,340.42,3.33,'1111122,1111122,1111122' 
COMPS,ioos:station:USF.COMPS:ARP:1,2017-04-01T10:12:00Z,28.4330,-82.6670,10.0,1.47,329.36,2.64,'1111122,1111122,1111122' 
COMPS,ioos:station:USF.COMPS:ARP:1,2017-04-01T10:18:00Z,28.4330,-82.6670,10.0,1.66,326.7,3.52,'1111122,1111122,1111122' 
COMPS,ioos:station:USF.COMPS:ARP:1,2017-04-01T10:24:00Z,28.4330,-82.6670,10.0,1.5,329.82,3.42,'1111122,1111122,1111122' 
COMPS,ioos:station:USF.COMPS:ARP:1,2017-04-01T10:30:00Z,28.4330,-82.6670,10.0,1.22,343.94,2.74,'1111122,1111122,1111122' 
COMPS,ioos:station:USF.COMPS:ARP:1,2017-04-01T10:36:00Z,28.4330,-82.6670,10.0,1.02,0.59,2.35,'1111122,1111122,1111122' 
COMPS,ioos:station:USF.COMPS:ARP:1,2017-04-01T10:42:00Z,28.4330,-82.6670,10.0,1.54,346.03,3.03,'1111122,1111122,1111122' 
COMPS,ioos:station:USF.COMPS:ARP:1,2017-04-01T10:48:00Z,28.4330,-82.6670,10.0,1.61,337.19,2.74,'1111122,1111122,1111122' 
COMPS,ioos:station:USF.COMPS:ARP:1,2017-04-01T10:54:00Z,28.4330,-82.6670,10.0,1.5,336.96,2.84,'1111122,1111122,1111122' 
COMPS,ioos:station:USF.COMPS:ARP:1,2017-04-01T11:00:00Z,28.4330,-82.6670,10.0,1.37,341.25,2.84,'1111122,1111122,1111122' 
COMPS,ioos:station:USF.COMPS:ARP:1,2017-04-01T11:06:00Z,28.4330,-82.6670,10.0,1.61,333.56,4.21,'1111122,1111122,1111122' 
COMPS,ioos:station:USF.COMPS:ARP:1,2017-04-01T11:12:00Z,28.4330,-82.6670,10.0,1.48,339.85,3.23,'1111122,1111122,1111122' 
COMPS,ioos:station:USF.COMPS:ARP:1,2017-04-01T11:18:00Z,28.4330,-82.6670,10.0,1.23,338.14,2.64,'1111122,1111122,1111122' 
COMPS,ioos:station:USF.COMPS:ARP:1,2017-04-01T11:24:00Z,28.4330,-82.6670,10.0,1.26,329.93,3.42,'1111122,1111122,1111122' 
COMPS,ioos:station:USF.COMPS:ARP:1,2017-04-01T11:30:00Z,28.4330,-82.6670,10.0,1.18,340.13,2.35,'1111122,1111122,1111122' 
COMPS,ioos:station:USF.COMPS:ARP:1,2017-04-01T11:36:00Z,28.4330,-82.6670,10.0,1.06,340.93,2.45,'1111122,1111122,1111122' 
COMPS,ioos:station:USF.COMPS:ARP:1,2017-04-01T11:42:00Z,28.4330,-82.6670,10.0,0.74,5.06,3.23,'1111122,1111122,1111122' 
COMPS,ioos:station:USF.COMPS:ARP:1,2017-04-01T11:48:00Z,28.4330,-82.6670,10.0,0.65,349.61,2.05,'1111122,1111122,1111122' 
COMPS,ioos:station:USF.COMPS:ARP:1,2017-04-01T11:54:00Z,28.4330,-82.6670,10.0,0.56,65.13,1.46,'1111122,1111122,1111122' 
COMPS,ioos:station:USF.COMPS:ARP:1,2017-04-01T12:00:00Z,28.4330,-82.6670,10.0,1.09,68.42,1.56,'1111122,1111122,1111122' 
COMPS,ioos:station:USF.COMPS:ARP:1,2017-04-01T12:06:00Z,28.4330,-82.6670,10.0,0.97,77.65,1.46,'1111122,1111122,1111122' 
COMPS,ioos:station:USF.COMPS:ARP:1,2017-04-01T12:12:00Z,28.4330,-82.6670,10.0,0.72,87.34,1.46,'1111122,1111122,1111122' 
COMPS,ioos:station:USF.COMPS:ARP:1,2017-04-01T12:18:00Z,28.4330,-82.6670,10.0,0.84,116.41,1.66,'1111122,1111122,1111122' 
COMPS,ioos:station:USF.COMPS:ARP:1,2017-04-01T12:24:00Z,28.4330,-82.6670,10.0,1.2,108.59,1.95,'1111122,1111122,1111122' 
COMPS,ioos:station:USF.COMPS:ARP:1,2017-04-01T12:30:00Z,28.4330,-82.6670,10.0,1.12,104.24,1.66,'1111122,1111122,1111122' 
COMPS,ioos:station:USF.COMPS:ARP:1,2017-04-01T12:36:00Z,28.4330,-82.6670,10.0,1.14,107.73,1.86,'1111122,1111122,1111122' 
COMPS,ioos:station:USF.COMPS:ARP:1,2017-04-01T12:42:00Z,28.4330,-82.6670,10.0,1.27,105.65,1.56,'1111122,1111122,1111122' 
COMPS,ioos:station:USF.COMPS:ARP:1,2017-04-01T12:48:00Z,28.4330,-82.6670,10.0,0.85,108.93,1.86,'1111122,1111122,1111122' 
COMPS,ioos:station:USF.COMPS:ARP:1,2017-04-01T12:54:00Z,28.4330,-82.6670,10.0,1.11,113.43,1.66,'1111122,1111122,1111122' 
COMPS,ioos:station:USF.COMPS:ARP:1,2017-04-01T13:00:00Z,28.4330,-82.6670,10.0,0.63,92.41,1.37,'1111122,1111122,1111122' 
COMPS,ioos:station:USF.COMPS:ARP:1,2017-04-01T13:06:00Z,28.4330,-82.6670,10.0,1.15,87.67,1.56,'1111122,1111122,1111122' 
COMPS,ioos:station:USF.COMPS:ARP:1,2017-04-01T13:12:00Z,28.4330,-82.6670,10.0,1.22,102.19,1.95,'1111122,1111122,1111122' 
COMPS,ioos:station:USF.COMPS:ARP:1,2017-04-01T13:18:00Z,28.4330,-82.6670,10.0,0.81,102.53,1.37,'1111122,1111122,1111122' 
COMPS,ioos:station:USF.COMPS:ARP:1,2017-04-01T13:24:00Z,28.4330,-82.6670,10.0,0.75,79.26,1.37,'1111122,1111122,1111122' 
COMPS,ioos:station:USF.COMPS:ARP:1,2017-04-01T13:30:00Z,28.4330,-82.6670,10.0,0.87,118.31,1.86,'1111122,1111122,1111122' 
COMPS,ioos:station:USF.COMPS:ARP:1,2017-04-01T13:36:00Z,28.4330,-82.6670,10.0,0.69,52.27,2.25,'1111122,1111122,1111122' 
COMPS,ioos:station:USF.COMPS:ARP:1,2017-04-01T13:42:00Z,28.4330,-82.6670,10.0,0.66,341.45,1.86,'1111122,1111122,1111122' 
COMPS,ioos:station:USF.COMPS:ARP:1,2017-04-01T13:48:00Z,28.4330,-82.6670,10.0,0.62,334.9,1.66,'1111122,1111122,1111122' 
COMPS,ioos:station:USF.COMPS:ARP:1,2017-04-01T13:54:00Z,28.4330,-82.6670,10.0,0.84,27.88,2.45,'1111122,1111122,1111122' 
COMPS,ioos:station:USF.COMPS:ARP:1,2017-04-01T14:00:00Z,28.4330,-82.6670,10.0,1.11,10.92,2.35,'1111122,1111122,1111122' 
COMPS,ioos:station:USF.COMPS:ARP:1,2017-04-01T14:06:00Z,28.4330,-82.6670,10.0,1.58,345.34,3.23,'1111122,1111122,1111122' 
COMPS,ioos:station:USF.COMPS:ARP:1,2017-04-01T14:12:00Z,28.4330,-82.6670,10.0,1.53,355.34,3.13,'1111122,1111122,1111122' 
COMPS,ioos:station:USF.COMPS:ARP:1,2017-04-01T14:18:00Z,28.4330,-82.6670,10.0,1.67,336.84,3.52,'1111122,1111122,1111122' 
COMPS,ioos:station:USF.COMPS:ARP:1,2017-04-01T14:24:00Z,28.4330,-82.6670,10.0,1.56,351.34,3.33,'1111122,1111122,1111122' 
COMPS,ioos:station:USF.COMPS:ARP:1,2017-04-01T14:30:00Z,28.4330,-82.6670,10.0,1.14,346.27,2.64,'1111122,1111122,1111122' 
COMPS,ioos:station:USF.COMPS:ARP:1,2017-04-01T14:36:00Z,28.4330,-82.6670,10.0,1.0,324.2,2.84,'1111122,1111122,1111122' 
COMPS,ioos:station:USF.COMPS:ARP:1,2017-04-01T14:42:00Z,28.4330,-82.6670,10.0,1.86,330.89,4.41,'1111122,1111122,1111122' 
COMPS,ioos:station:USF.COMPS:ARP:1,2017-04-01T14:48:00Z,28.4330,-82.6670,10.0,1.96,343.63,4.11,'1111122,1111122,1111122' 
COMPS,ioos:station:USF.COMPS:ARP:1,2017-04-01T14:54:00Z,28.4330,-82.6670,10.0,1.75,331.49,3.52,'1111122,1111122,1111122' 
COMPS,ioos:station:USF.COMPS:ARP:1,2017-04-01T15:00:00Z,28.4330,-82.6670,10.0,1.64,337.54,3.42,'1111122,1111122,1111122' 
COMPS,ioos:station:USF.COMPS:ARP:1,2017-04-01T15:06:00Z,28.4330,-82.6670,10.0,2.06,345.9,4.01,'1111122,1111122,1111122' 
COMPS,ioos:station:USF.COMPS:ARP:1,2017-04-01T15:12:00Z,28.4330,-82.6670,10.0,2.05,333.8,4.31,'1111122,1111122,1111122' 
COMPS,ioos:station:USF.COMPS:ARP:1,2017-04-01T15:18:00Z,28.4330,-82.6670,10.0,1.89,333.4,3.91,'1111122,1111122,1111122' 
COMPS,ioos:station:USF.COMPS:ARP:1,2017-04-01T15:24:00Z,28.4330,-82.6670,10.0,1.76,349.32,4.31,'1111122,1111122,1111122' 
COMPS,ioos:station:USF.COMPS:ARP:1,2017-04-01T15:30:00Z,28.4330,-82.6670,10.0,1.81,350.0,3.52,'1111122,1111122,1111122' 
COMPS,ioos:station:USF.COMPS:ARP:1,2017-04-01T15:36:00Z,28.4330,-82.6670,10.0,1.71,318.94,3.72,'1111122,1111122,1111122' 
COMPS,ioos:station:USF.COMPS:ARP:1,2017-04-01T15:42:00Z,28.4330,-82.6670,10.0,2.19,322.4,3.82,'1111122,1111122,1111122' 
COMPS,ioos:station:USF.COMPS:ARP:1,2017-04-01T15:48:00Z,28.4330,-82.6670,10.0,1.87,330.58,3.72,'1111122,1111122,1111122' 
COMPS,ioos:station:USF.COMPS:ARP:1,2017-04-01T15:54:00Z,28.4330,-82.6670,10.0,2.13,316.89,4.11,'1111122,1111122,1111122' 
COMPS,ioos:station:USF.COMPS:ARP:1,2017-04-01T16:00:00Z,28.4330,-82.6670,10.0,2.61,315.25,4.6,'1111122,1111122,1111122' 
COMPS,ioos:station:USF.COMPS:ARP:1,2017-04-01T16:06:00Z,28.4330,-82.6670,10.0,2.64,313.92,4.31,'1111122,1111122,1111122' 
COMPS,ioos:station:USF.COMPS:ARP:1,2017-04-01T16:12:00Z,28.4330,-82.6670,10.0,3.2,311.48,4.99,'1111122,1111122,1111122' 
COMPS,ioos:station:USF.COMPS:ARP:1,2017-04-01T16:18:00Z,28.4330,-82.6670,10.0,2.69,321.38,4.8,'1111122,1111122,1111122' 
COMPS,ioos:station:USF.COMPS:ARP:1,2017-04-01T16:24:00Z,28.4330,-82.6670,10.0,2.63,311.26,4.5,'1111122,1111122,1111122' 
COMPS,ioos:station:USF.COMPS:ARP:1,2017-04-01T16:30:00Z,28.4330,-82.6670,10.0,2.88,312.26,4.7,'1111122,1111122,1111122' 
COMPS,ioos:station:USF.COMPS:ARP:1,2017-04-01T16:36:00Z,28.4330,-82.6670,10.0,2.24,317.55,3.91,'1111122,1111122,1111122' 
COMPS,ioos:station:USF.COMPS:ARP:1,2017-04-01T16:42:00Z,28.4330,-82.6670,10.0,3.35,312.48,4.5,'1111122,1111122,1111122' 
COMPS,ioos:station:USF.COMPS:ARP:1,2017-04-01T16:48:00Z,28.4330,-82.6670,10.0,2.68,318.58,4.5,'1111122,1111122,1111122' 
COMPS,ioos:station:USF.COMPS:ARP:1,2017-04-01T16:54:00Z,28.4330,-82.6670,10.0,2.89,309.91,4.8,'1111122,1111122,1111122' 
COMPS,ioos:station:USF.COMPS:ARP:1,2017-04-01T17:00:00Z,28.4330,-82.6670,10.0,3.07,316.04,5.19,'1111122,1111122,1111122' 
COMPS,ioos:station:USF.COMPS:ARP:1,2017-04-01T17:06:00Z,28.4330,-82.6670,10.0,3.66,304.22,4.6,'1111122,1111122,1111122' 
COMPS,ioos:station:USF.COMPS:ARP:1,2017-04-01T17:12:00Z,28.4330,-82.6670,10.0,3.43,309.35,4.7,'1111122,1111122,1111122' 
COMPS,ioos:station:USF.COMPS:ARP:1,2017-04-01T17:18:00Z,28.4330,-82.6670,10.0,3.87,307.86,4.99,'1111122,1111122,1111122' 
COMPS,ioos:station:USF.COMPS:ARP:1,2017-04-01T17:24:00Z,28.4330,-82.6670,10.0,4.02,304.41,5.19,'1111122,1111122,1111122' 
COMPS,ioos:station:USF.COMPS:ARP:1,2017-04-01T17:30:00Z,28.4330,-82.6670,10.0,3.73,304.36,4.8,'1111122,1111122,1111122' 
COMPS,ioos:station:USF.COMPS:ARP:1,2017-04-01T17:36:00Z,28.4330,-82.6670,10.0,4.14,303.41,4.99,'1111122,1111122,1111122' 
COMPS,ioos:station:USF.COMPS:ARP:1,2017-04-01T17:42:00Z,28.4330,-82.6670,10.0,4.33,303.42,4.9,'1111122,1111122,1111122' 
COMPS,ioos:station:USF.COMPS:ARP:1,2017-04-01T17:48:00Z,28.4330,-82.6670,10.0,4.01,303.94,4.5,'1111122,1111122,1111122' 
COMPS,ioos:station:USF.COMPS:ARP:1,2017-04-01T17:54:00Z,28.4330,-82.6670,10.0,3.95,304.73,4.7,'1111122,1111122,1111122' 
COMPS,ioos:station:USF.COMPS:ARP:1,2017-04-01T18:00:00Z,28.4330,-82.6670,10.0,4.1,305.45,4.8,'1111122,1111122,1111122' 
COMPS,ioos:station:USF.COMPS:ARP:1,2017-04-01T18:06:00Z,28.4330,-82.6670,10.0,4.24,303.67,4.7,'1111122,1111122,1111122' 
COMPS,ioos:station:USF.COMPS:ARP:1,2017-04-01T18:12:00Z,28.4330,-82.6670,10.0,4.1,304.84,4.8,'1111122,1111122,1111122' 
COMPS,ioos:station:USF.COMPS:ARP:1,2017-04-01T18:18:00Z,28.4330,-82.6670,10.0,4.09,301.51,4.8,'1111122,1111122,1111122' 
COMPS,ioos:station:USF.COMPS:ARP:1,2017-04-01T18:24:00Z,28.4330,-82.6670,10.0,4.22,304.74,4.9,'1111122,1111122,1111122' 
COMPS,ioos:station:USF.COMPS:ARP:1,2017-04-01T18:30:00Z,28.4330,-82.6670,10.0,4.36,305.91,4.9,'1111122,1111122,1111122' 
COMPS,ioos:station:USF.COMPS:ARP:1,2017-04-01T18:36:00Z,28.4330,-82.6670,10.0,4.48,302.35,4.99,'1111122,1111122,1111122' 
COMPS,ioos:station:USF.COMPS:ARP:1,2017-04-01T18:42:00Z,28.4330,-82.6670,10.0,4.43,305.34,5.29,'1111122,1111122,1111122' 
COMPS,ioos:station:USF.COMPS:ARP:1,2017-04-01T18:48:00Z,28.4330,-82.6670,10.0,4.47,305.72,5.29,'1111122,1111122,1111122' 
COMPS,ioos:station:USF.COMPS:ARP:1,2017-04-01T18:54:00Z,28.4330,-82.6670,10.0,4.5,306.45,5.29,'1111122,1111122,1111122' 
COMPS,ioos:station:USF.COMPS:ARP:1,2017-04-01T19:00:00Z,28.4330,-82.6670,10.0,4.69,303.67,5.39,'1111122,1111122,1111122' 
COMPS,ioos:station:USF.COMPS:ARP:1,2017-04-01T19:06:00Z,28.4330,-82.6670,10.0,4.52,306.01,5.58,'1111122,1111122,1111122' 
COMPS,ioos:station:USF.COMPS:ARP:1,2017-04-01T19:12:00Z,28.4330,-82.6670,10.0,4.18,304.12,4.9,'1111122,1111122,1111122' 
COMPS,ioos:station:USF.COMPS:ARP:1,2017-04-01T19:18:00Z,28.4330,-82.6670,10.0,4.45,306.52,5.29,'1111122,1111122,1111122' 
COMPS,ioos:station:USF.COMPS:ARP:1,2017-04-01T19:24:00Z,28.4330,-82.6670,10.0,4.1,299.44,4.9,'1111122,1111122,1111122' 
COMPS,ioos:station:USF.COMPS:ARP:1,2017-04-01T19:30:00Z,28.4330,-82.6670,10.0,4.05,294.64,4.7,'1111122,1111122,1111122' 